Location: Hawks Ness
(60.2333°N, 1.1667°W)
Time: 18:16:01
(UTC+00:00)

Cosmos 2333 Rocket - Pass Details

Date: 22 October 2019
Orbit: 838 x 864 km, 70.8° (Epoch: 19 November)

Event Time Altitude Azimuth Distance (km) Brightness Sun altitude
Exits shadow 02:09:33 21° 109° (ESE) 1,809 4.1 -34.3°
Maximum altitude 02:09:56 21° 103° (ESE) 1,804 4.1 -34.2°
Drops below altitude 10° 02:14:08 10° 55° (NE) 2,493 5.4 -33.9°
Sets 02:17:07 0° 41° (NE) 3,439 6.4 -33.6°
